| time (UTC) | temp F | wind direction | speed MPH | gust MPH | rain 1hr in | rain 24hr in | rain mn in | humidity % | barometer mb |
| 20260831150052 | 73 | 42 | 3.0 | 9.0 | 0.00 | 0.00 | 0.00 | 68 | 1023.9 |
| 20260831145116 | 73 | 54 | 3.0 | 7.0 | 0.00 | 0.00 | 0.00 | 69 | 1023.9 |
| 20260831144036 | 73 | 1 | 4.0 | 10.0 | 0.00 | 0.00 | 0.00 | 69 | 1024.0 |
| 20260831143101 | 73 | 337 | 4.0 | 10.0 | 0.00 | 0.00 | 0.00 | 69 | 1024.1 |
| 20260831142021 | 73 | 352 | 3.0 | 6.0 | 0.00 | 0.00 | 0.00 | 66 | 1024.2 |
| 20260831141044 | 73 | 5 | 3.0 | 8.0 | 0.00 | 0.00 | 0.00 | 65 | 1024.0 |
| 20260831140109 | 73 | 3 | 5.0 | 10.0 | 0.00 | 0.00 | 0.00 | 64 | 1024.2 |
| 20260831135028 | 73 | 343 | 5.0 | 10.0 | 0.00 | 0.00 | 0.00 | 59 | 1024.2 |
| 20260831134053 | 74 | 358 | 3.0 | 9.0 | 0.00 | 0.00 | 0.00 | 60 | 1024.2 |
| 20260831133116 | 74 | 342 | 6.0 | 8.0 | 0.00 | 0.00 | 0.00 | 60 | 1024.2 |
| 20260831132036 | 75 | 357 | 4.0 | 8.0 | 0.00 | 0.00 | 0.00 | 60 | 1024.2 |
| 20260831131100 | 74 | 337 | 3.0 | 9.0 | 0.00 | 0.00 | 0.00 | 60 | 1024.2 |
| 20260831130020 | 75 | 31 | 2.0 | 6.0 | 0.00 | 0.00 | 0.00 | 60 | 1024.3 |
| 20260831125045 | 74 | 5 | 3.0 | 9.0 | 0.00 | 0.00 | 0.00 | 61 | 1024.3 |
| 20260831124109 | 74 | 14 | 2.0 | 6.0 | 0.00 | 0.00 | 0.00 | 59 | 1024.4 |
| 20260831123028 | 73 | 356 | 3.0 | 8.0 | 0.00 | 0.00 | 0.00 | 62 | 1024.4 |
| 20260831122054 | 74 | 354 | 3.0 | 6.0 | 0.00 | 0.00 | 0.00 | 61 | 1024.5 |
| 20260831121117 | 73 | 1 | 4.0 | 7.0 | 0.00 | 0.00 | 0.00 | 63 | 1024.5 |
| 20260831120101 | 73 | 40 | 2.0 | 6.0 | 0.00 | 0.00 | 0.00 | 62 | 1024.5 |
| 20260831115100 | 73 | 57 | 3.0 | 6.0 | 0.00 | 0.00 | 0.00 | 66 | 1024.6 |
| 20260831114021 | 73 | 41 | 3.0 | 6.0 | 0.00 | 0.00 | 0.00 | 67 | 1024.8 |
| 20260831113045 | 73 | 44 | 2.0 | 6.0 | 0.00 | 0.00 | 0.00 | 67 | 1024.8 |
| 20260831112109 | 73 | 37 | 2.0 | 4.0 | 0.00 | 0.00 | 0.00 | 68 | 1024.8 |
| 20260831111028 | 74 | 36 | 2.0 | 6.0 | 0.00 | 0.00 | 0.00 | 63 | 1024.8 |
| 20260831110053 | 73 | 79 | 2.0 | 6.0 | 0.00 | 0.00 | 0.00 | 67 | 1024.7 |
| 20260831105116 | 72 | 26 | 2.0 | 6.0 | 0.00 | 0.00 | 0.00 | 68 | 1024.7 |
| 20260831104036 | 73 | 58 | 2.0 | 6.0 | 0.00 | 0.00 | 0.00 | 61 | 1024.6 |
| 20260831103100 | 72 | 33 | 1.0 | 3.0 | 0.00 | 0.00 | 0.00 | 63 | 1024.6 |
| 20260831102020 | 71 | 44 | 1.0 | 4.0 | 0.00 | 0.00 | 0.00 | 66 | 1024.7 |
| 20260831101044 | 69 | 70 | 1.0 | 3.0 | 0.00 | 0.00 | 0.00 | 66 | 1024.7 |
| 20260831100108 | 70 | 4 | 3.0 | 4.0 | 0.00 | 0.00 | 0.00 | 67 | 1024.5 |
| 20260831095029 | 70 | 8 | 2.0 | 4.0 | 0.00 | 0.00 | 0.00 | 67 | 1024.5 |
| 20260831094052 | 69 | 153 | 3.0 | 7.0 | 0.00 | 0.00 | 0.00 | 68 | 1024.5 |
| 20260831093116 | 69 | 103 | 2.0 | 4.0 | 0.00 | 0.00 | 0.00 | 70 | 1024.4 |
| 20260831092037 | 69 | 96 | 3.0 | 6.0 | 0.00 | 0.00 | 0.00 | 71 | 1024.7 |
| 20260831091100 | 68 | 95 | 3.0 | 4.0 | 0.00 | 0.00 | 0.00 | 74 | 1024.7 |
| 20260831090040 | 67 | 101 | 3.0 | 6.0 | 0.00 | 0.00 | 0.00 | 78 | 1024.7 |
| 20260831085105 | 66 | 84 | 2.0 | 4.0 | 0.00 | 0.00 | 0.00 | 81 | 1024.7 |
| 20260831084109 | 64 | 88 | 2.0 | 3.0 | 0.00 | 0.00 | 0.00 | 83 | 1024.6 |
| 20260831083048 | 64 | 94 | 2.0 | 3.0 | 0.00 | 0.00 | 0.00 | 85 | 1024.6 |
| 20260831082055 | 63 | 99 | 3.0 | 6.0 | 0.00 | 0.00 | 0.00 | 86 | 1024.6 |
| 20260831081117 | 63 | 95 | 2.0 | 3.0 | 0.00 | 0.00 | 0.00 | 87 | 1024.5 |
| 20260831080056 | 62 | 142 | 3.0 | 4.0 | 0.00 | 0.00 | 0.00 | 87 | 1024.5 |
| 20260831075100 | 62 | 115 | 2.0 | 4.0 | 0.00 | 0.00 | 0.00 | 88 | 1024.5 |
| 20260831074101 | 61 | 108 | 2.0 | 4.0 | 0.00 | 0.00 | 0.00 | 88 | 1024.4 |
| 20260831073104 | 61 | 113 | 3.0 | 4.0 | 0.00 | 0.00 | 0.00 | 89 | 1024.3 |
| 20260831072148 | 61 | 134 | 3.0 | 7.0 | 0.00 | 0.00 | 0.00 | 89 | 1024.2 |
| 20260831071028 | 61 | 121 | 3.0 | 6.0 | 0.00 | 0.00 | 0.00 | 90 | 1024.2 |
| 20260831070052 | 61 | 134 | 3.0 | 6.0 | 0.00 | 0.00 | 0.00 | 90 | 1023.9 |
| 20260831065116 | 60 | 130 | 3.0 | 4.0 | 0.00 | 0.00 | 0.00 | 90 | 1023.9 |
| 20260831064037 | 60 | 110 | 2.0 | 4.0 | 0.00 | 0.00 | 0.00 | 91 | 1023.8 |
| 20260831063100 | 60 | 119 | 2.0 | 4.0 | 0.00 | 0.00 | 0.00 | 91 | 1023.7 |
| 20260831062021 | 60 | 128 | 3.0 | 6.0 | 0.00 | 0.00 | 0.00 | 91 | 1023.6 |
| 20260831061044 | 60 | 139 | 3.0 | 6.0 | 0.00 | 0.00 | 0.00 | 91 | 1023.6 |
| 20260831060149 | 60 | 111 | 4.0 | 7.0 | 0.00 | 0.00 | 0.00 | 92 | 1023.7 |
| 20260831055028 | 59 | 132 | 4.0 | 7.0 | 0.00 | 0.00 | 0.00 | 92 | 1023.6 |
| 20260831054052 | 59 | 142 | 4.0 | 6.0 | 0.00 | 0.00 | 0.00 | 92 | 1023.5 |
| 20260831053137 | 59 | 123 | 4.0 | 8.0 | 0.00 | 0.00 | 0.00 | 91 | 1023.5 |
| 20260831052036 | 59 | 138 | 4.0 | 6.0 | 0.00 | 0.00 | 0.00 | 91 | 1023.4 |
| 20260831051100 | 59 | 123 | 2.0 | 4.0 | 0.00 | 0.00 | 0.00 | 91 | 1023.3 |
| 20260831050020 | 59 | 124 | 3.0 | 4.0 | 0.00 | 0.00 | 0.00 | 91 | 1023.4 |
| 20260831045105 | 59 | 126 | 3.0 | 4.0 | 0.00 | 0.00 | 0.00 | 91 | 1023.3 |
| 20260831044108 | 59 | 107 | 2.0 | 3.0 | 0.00 | 0.00 | 0.00 | 91 | 1023.4 |
| 20260831043029 | 59 | 101 | 3.0 | 4.0 | 0.00 | 0.00 | 0.00 | 91 | 1023.3 |
| 20260831042052 | 59 | 108 | 2.0 | 4.0 | 0.00 | 0.00 | 0.00 | 92 | 1023.2 |
| 20260831041117 | 59 | 110 | 2.0 | 4.0 | 0.00 | 0.00 | 0.00 | 92 | 1023.4 |
| 20260831040036 | 59 | 107 | 2.0 | 3.0 | 0.00 | 0.00 | 0.00 | 92 | 1023.3 |
| 20260831035100 | 59 | 122 | 3.0 | 3.0 | 0.00 | 0.00 | 0.00 | 91 | 1023.3 |
| 20260831034020 | 59 | 99 | 2.0 | 3.0 | 0.00 | 0.00 | 0.00 | 91 | 1023.4 |
| 20260831033043 | 59 | 105 | 2.0 | 3.0 | 0.00 | 0.00 | 0.00 | 91 | 1023.4 |
| 20260831032109 | 59 | 89 | 1.0 | 2.0 | 0.00 | 0.00 | 0.00 | 91 | 1023.4 |
| 20260831031029 | 59 | 90 | 2.0 | 3.0 | 0.00 | 0.00 | 0.00 | 91 | 1023.5 |
| 20260831030052 | 59 | 94 | 1.0 | 3.0 | 0.00 | 0.00 | 0.00 | 90 | 1023.4 |
| 20260831025116 | 60 | 92 | 2.0 | 3.0 | 0.00 | 0.00 | 0.00 | 90 | 1023.4 |
| 20260831024036 | 60 | 91 | 2.0 | 3.0 | 0.00 | 0.00 | 0.00 | 90 | 1023.4 |
| 20260831023100 | 60 | 124 | 2.0 | 3.0 | 0.00 | 0.00 | 0.00 | 89 | 1023.4 |
| 20260831022020 | 60 | 101 | 2.0 | 3.0 | 0.00 | 0.00 | 0.00 | 89 | 1023.5 |
| 20260831021043 | 60 | 103 | 1.0 | 3.0 | 0.00 | 0.00 | 0.00 | 88 | 1023.4 |
| 20260831020109 | 61 | 108 | 2.0 | 3.0 | 0.00 | 0.00 | 0.00 | 88 | 1023.4 |
| 20260831015029 | 61 | 93 | 1.0 | 3.0 | 0.00 | 0.00 | 0.00 | 88 | 1023.3 |
| 20260831014112 | 61 | 99 | 2.0 | 3.0 | 0.00 | 0.00 | 0.00 | 87 | 1023.2 |
| 20260831013236 | 61 | 110 | 2.0 | 3.0 | 0.00 | 0.00 | 0.00 | 87 | 1023.3 |
| 20260831012037 | 61 | 88 | 1.0 | 2.0 | 0.00 | 0.00 | 0.00 | 87 | 1023.3 |
| 20260831011119 | 62 | 90 | 1.0 | 2.0 | 0.00 | 0.00 | 0.00 | 86 | 1023.3 |
| 20260831010030 | 62 | 107 | 2.0 | 3.0 | 0.00 | 0.00 | 0.00 | 86 | 1023.2 |
| 20260831005044 | 62 | 121 | 3.0 | 4.0 | 0.00 | 0.00 | 0.00 | 86 | 1023.3 |
| 20260831004108 | 62 | 120 | 2.0 | 3.0 | 0.00 | 0.00 | 0.00 | 85 | 1023.4 |
| 20260831003027 | 62 | 86 | 1.0 | 3.0 | 0.00 | 0.00 | 0.00 | 84 | 1023.5 |
| 20260831002112 | 63 | 119 | 2.0 | 3.0 | 0.00 | 0.00 | 0.00 | 84 | 1023.5 |
| 20260831001116 | 63 | 131 | 3.0 | 4.0 | 0.00 | 0.00 | 0.00 | 83 | 1023.4 |
| 20260831000036 | 63 | 100 | 2.0 | 3.0 | 0.00 | 0.00 | 0.00 | 82 | 1023.4 |
| 20260830235101 | 63 | 102 | 2.0 | 3.0 | 0.00 | 0.00 | 0.00 | 82 | 1023.5 |
| 20260830234020 | 64 | 113 | 2.0 | 3.0 | 0.00 | 0.00 | 0.00 | 81 | 1023.6 |
| 20260830233045 | 64 | 108 | 2.0 | 6.0 | 0.00 | 0.00 | 0.00 | 80 | 1023.6 |
| 20260830232109 | 64 | 120 | 2.0 | 4.0 | 0.00 | 0.00 | 0.00 | 81 | 1023.6 |
| 20260830231029 | 63 | 90 | 1.0 | 4.0 | 0.00 | 0.00 | 0.00 | 80 | 1023.7 |
| 20260830230052 | 63 | 104 | 2.0 | 4.0 | 0.00 | 0.00 | 0.00 | 80 | 1023.7 |
| 20260830225116 | 64 | 119 | 2.0 | 4.0 | 0.00 | 0.00 | 0.00 | 79 | 1023.7 |
| 20260830224036 | 63 | 125 | 3.0 | 7.0 | 0.00 | 0.00 | 0.00 | 79 | 1023.6 |
| 20260830223100 | 63 | 126 | 3.0 | 4.0 | 0.00 | 0.00 | 0.00 | 80 | 1023.6 |
| 20260830222020 | 63 | 109 | 2.0 | 3.0 | 0.00 | 0.00 | 0.00 | 80 | 1023.6 |
| 20260830221044 | 64 | 114 | 2.0 | 3.0 | 0.00 | 0.00 | 0.00 | 80 | 1023.7 |
| 20260830220108 | 64 | 108 | 2.0 | 4.0 | 0.00 | 0.00 | 0.00 | 78 | 1023.6 |
| 20260830215028 | 64 | 131 | 3.0 | 4.0 | 0.00 | 0.00 | 0.00 | 77 | 1023.6 |
| 20260830214052 | 64 | 101 | 2.0 | 3.0 | 0.00 | 0.00 | 0.00 | 77 | 1023.5 |
| 20260830213116 | 65 | 110 | 2.0 | 3.0 | 0.00 | 0.00 | 0.00 | 76 | 1023.5 |
| 20260830212036 | 65 | 101 | 2.0 | 2.0 | 0.00 | 0.00 | 0.00 | 75 | 1023.4 |
| 20260830211100 | 66 | 80 | 1.0 | 2.0 | 0.00 | 0.00 | 0.00 | 75 | 1023.4 |
| 20260830210100 | 66 | 86 | 1.0 | 2.0 | 0.00 | 0.00 | 0.00 | 74 | 1023.4 |
| 20260830205044 | 66 | 79 | 1.0 | 2.0 | 0.00 | 0.00 | 0.00 | 74 | 1023.2 |
| 20260830204128 | 66 | 81 | 1.0 | 1.0 | 0.00 | 0.00 | 0.00 | 74 | 1023.1 |
| 20260830203029 | 67 | 74 | 1.0 | 2.0 | 0.00 | 0.00 | 0.00 | 74 | 1023.0 |
| 20260830202052 | 67 | 81 | 1.0 | 2.0 | 0.00 | 0.00 | 0.00 | 74 | 1022.9 |
| 20260830201116 | 67 | 114 | 2.0 | 3.0 | 0.00 | 0.00 | 0.00 | 73 | 1022.7 |
| 20260830200035 | 67 | 41 | 2.0 | 4.0 | 0.00 | 0.00 | 0.00 | 73 | 1022.5 |
| 20260830195059 | 67 | 106 | 2.0 | 4.0 | 0.00 | 0.00 | 0.00 | 73 | 1022.5 |
| 20260830194019 | 67 | 36 | 2.0 | 4.0 | 0.00 | 0.00 | 0.00 | 74 | 1022.3 |
| 20260830193104 | 68 | 219 | 3.0 | 6.0 | 0.00 | 0.00 | 0.00 | 72 | 1022.3 |
| 20260830192108 | 68 | 295 | 3.0 | 6.0 | 0.00 | 0.00 | 0.00 | 71 | 1022.2 |
| 20260830191028 | 68 | 266 | 4.0 | 7.0 | 0.00 | 0.00 | 0.00 | 70 | 1022.1 |
| 20260830190051 | 69 | 266 | 4.0 | 9.0 | 0.00 | 0.00 | 0.00 | 69 | 1021.9 |
| 20260830185116 | 69 | 337 | 3.0 | 8.0 | 0.00 | 0.00 | 0.00 | 69 | 1022.1 |
| 20260830184036 | 70 | 269 | 6.0 | 9.0 | 0.00 | 0.00 | 0.00 | 68 | 1022.0 |
| 20260830183100 | 70 | 263 | 6.0 | 14.0 | 0.00 | 0.00 | 0.00 | 68 | 1021.9 |
| 20260830182020 | 70 | 290 | 7.0 | 14.0 | 0.00 | 0.00 | 0.00 | 68 | 1021.9 |
| 20260830181043 | 71 | 283 | 5.0 | 11.0 | 0.00 | 0.00 | 0.00 | 67 | 1021.8 |
| 20260830180109 | 71 | 286 | 6.0 | 14.0 | 0.00 | 0.00 | 0.00 | 68 | 1021.7 |
| 20260830175029 | 71 | 299 | 8.0 | 14.0 | 0.00 | 0.00 | 0.00 | 68 | 1021.7 |
| 20260830174052 | 71 | 257 | 6.0 | 11.0 | 0.00 | 0.00 | 0.00 | 67 | 1021.7 |
| 20260830173115 | 71 | 275 | 7.0 | 14.0 | 0.00 | 0.00 | 0.00 | 66 | 1021.6 |
| 20260830172036 | 71 | 311 | 7.0 | 13.0 | 0.00 | 0.00 | 0.00 | 66 | 1021.5 |
| 20260830171059 | 71 | 293 | 8.0 | 15.0 | 0.00 | 0.00 | 0.00 | 66 | 1021.4 |
| 20260830170020 | 72 | 268 | 8.0 | 15.0 | 0.00 | 0.00 | 0.00 | 65 | 1021.3 |
| 20260830165044 | 72 | 267 | 7.0 | 14.0 | 0.00 | 0.00 | 0.00 | 64 | 1021.2 |
| 20260830164108 | 72 | 287 | 7.0 | 15.0 | 0.00 | 0.00 | 0.00 | 65 | 1021.2 |
| 20260830163028 | 72 | 281 | 6.0 | 14.0 | 0.00 | 0.00 | 0.00 | 64 | 1021.1 |
| 20260830162052 | 72 | 289 | 7.0 | 14.0 | 0.00 | 0.00 | 0.00 | 64 | 1021.0 |
| 20260830161137 | 72 | 290 | 9.0 | 14.0 | 0.00 | 0.00 | 0.00 | 64 | 1021.1 |
| 20260830160036 | 72 | 260 | 9.0 | 15.0 | 0.00 | 0.00 | 0.00 | 64 | 1021.0 |
| 20260830155100 | 73 | 268 | 7.0 | 14.0 | 0.00 | 0.00 | 0.00 | 62 | 1021.1 |
| 20260830154020 | 72 | 273 | 7.0 | 14.0 | 0.00 | 0.00 | 0.00 | 63 | 1021.0 |
| 20260830153043 | 73 | 267 | 8.0 | 15.0 | 0.00 | 0.00 | 0.00 | 63 | 1021.0 |
| 20260830152108 | 74 | 305 | 8.0 | 15.0 | 0.00 | 0.00 | 0.00 | 62 | 1021.0 |
| 20260830151029 | 73 | 281 | 8.0 | 13.0 | 0.00 | 0.00 | 0.00 | 61 | 1020.9 |